RS-15 - Orbit

View from above orbital plane
View from above orbital plane
View from above satellite
View from above satellite

Ground track
Ground track

The orbit data is extracted from the following two-line orbital elements,

1 23439U 94085A   13144.31215517 -.00000039  00000-0  10000-3 0  5796
2 23439 064.8124 100.5904 0152806 157.4551 203.3180 11.27558858758150
Epoch (UTC): 24 May 2013 07:29:30
Eccentricity: 0.0152806
inclination: 64.8124°
perigee height: 1894 km
apogee height: 2151 km
right ascension of ascending node: 100.5904°
argument of perigee: 157.4551°
revolutions per day: 11.27558858
mean anomaly at epoch: 203.3180°
orbit number at epoch: 75815

The dashed part of the orbit path shows where the satellite is in the earth's shadow,  

Developed and maintained by Chris Peat, Heavens-Above GmbH. Please read the updated FAQ before sending e-mail. Imprint. DLR